Black River Falls, WI

12:50 PM CDT on May 27, 2017 (GMT -0500)
Black River Falls Area

Weather History for KBCK - January, 2014

Change the Weather History Date:

Sunday, January 12, 2014

  Actual Average (KCMY) Record (KCMY)
Temperature  
Mean Temperature 33 °F -  
Max Temperature 44 °F 21 °F 48 °F (2006)
Min Temperature 22 °F 1 °F -32 °F (1979)
Degree Days  
Heating Degree Days 32    
Moisture  
Dew Point 27 °F    
Average Humidity 76    
Maximum Humidity 100    
Minimum Humidity 48    
Precipitation  
Precipitation 0.00 in - - ()
Sea Level Pressure  
Sea Level Pressure 29.53 in    
Wind  
Wind Speed 5 mph (SSW)    
Max Wind Speed 14 mph    
Max Gust Speed 22 mph    
Visibility 9 miles    
Events      
Averages and records for this station are not official NWS values.
T = Trace of Precipitation, MM = Missing Value Source: NWS Daily Summary

Daily Weather History Graph

Daily Weather History Graph

Search for Another Location

Airport or City:

Trip Planner

Search our weather history database for the weather conditions in past years. The results will help you decide how hot, cold, wet, or windy it might be!

Date:

Astronomy

Jan. 12, 2014 Rise Set
Actual Time 7:37 AM CST 4:46 PM CST
Civil Twilight 7:04 AM CST 5:19 PM CST
Nautical Twilight 6:28 AM CST 5:55 PM CST
Astronomical Twilight 5:53 AM CST 6:30 PM CST
Moon 2:15 PM CST (1/12) 4:35 AM CST (1/12)
Length of Visible Light 10h 14m
Length of Day
9h 09m
Waxing Gibbous, 90% of the Moon is Illuminated
Jan 12
Waxing Gibbous
Jan 15
Full
Jan 23
Last Quarter
Jan 30
New
Feb 6
First Quarter

Hourly Weather History & Observations

Time (CST) Temp. Windchill Dew Point Humidity Pressure Visibility Wind Dir Wind Speed Gust Speed Precip Events Conditions
12:15 AM 26.6 °F 20.0 °F 25.3 °F 95% 29.71 in 7.0 mi SW 5.8 mph - N/A   Overcast
12:35 AM 26.6 °F 19.1 °F 25.7 °F 96% 29.70 in 7.0 mi SW 6.9 mph - N/A   Overcast
12:55 AM 26.6 °F 19.1 °F 26.2 °F 99% 29.69 in 7.0 mi SSW 6.9 mph - N/A   Overcast
1:15 AM 26.8 °F 20.2 °F 26.4 °F 99% 29.69 in 7.0 mi SSW 5.8 mph - N/A   Overcast
1:35 AM 26.6 °F 19.1 °F 26.6 °F 100% 29.68 in 7.0 mi SSW 6.9 mph - N/A   Overcast
1:55 AM 26.6 °F 20.0 °F 26.6 °F 100% 29.68 in 7.0 mi SSW 5.8 mph - N/A   Overcast
2:15 AM 26.6 °F 19.1 °F 26.6 °F 100% 29.68 in 7.0 mi South 6.9 mph - N/A   Overcast
2:35 AM 26.6 °F 22.6 °F 26.4 °F 99% 29.68 in 7.0 mi South 3.5 mph - N/A   Overcast
2:55 AM 26.2 °F - 26.2 °F 100% 29.68 in 7.0 mi Calm Calm - N/A   Overcast
3:15 AM 25.0 °F - 25.0 °F 100% 29.68 in 5.0 mi Calm Calm - N/A   Mostly Cloudy
3:35 AM 24.1 °F 19.7 °F 24.1 °F 100% 29.67 in 4.0 mi SSE 3.5 mph - N/A   Scattered Clouds
3:55 AM 23.5 °F - 23.5 °F 100% 29.66 in 4.0 mi Calm Calm - N/A   Clear
4:15 AM 23.9 °F - 23.9 °F 100% 29.65 in 5.0 mi Calm Calm - N/A   Clear
4:35 AM 23.9 °F 19.5 °F 23.9 °F 100% 29.64 in 5.0 mi South 3.5 mph - N/A   Clear
4:55 AM 23.5 °F - 23.5 °F 100% 29.64 in 5.0 mi Calm Calm - N/A   Clear
5:15 AM 22.8 °F 16.7 °F 22.8 °F 100% 29.61 in 5.0 mi SE 4.6 mph - N/A   Scattered Clouds
5:35 AM 23.7 °F 19.3 °F 23.7 °F 100% 29.60 in 5.0 mi SE 3.5 mph - N/A   Scattered Clouds
5:55 AM 24.4 °F 20.1 °F 24.4 °F 100% 29.59 in 7.0 mi SE 3.5 mph - N/A   Mostly Cloudy
6:15 AM 24.6 °F 18.8 °F 24.6 °F 100% 29.58 in 5.0 mi SE 4.6 mph - N/A   Mostly Cloudy
6:35 AM 25.2 °F 19.5 °F 25.2 °F 100% 29.58 in 7.0 mi SE 4.6 mph - N/A   Overcast
6:55 AM 26.2 °F 20.7 °F 25.7 °F 98% 29.58 in 7.0 mi SSE 4.6 mph - N/A   Overcast
7:15 AM 27.1 °F 21.8 °F 26.4 °F 97% 29.56 in 10.0 mi SE 4.6 mph - N/A   Mostly Cloudy
7:35 AM 27.5 °F 23.6 °F 26.6 °F 96% 29.55 in 10.0 mi SE 3.5 mph - N/A   Scattered Clouds
7:55 AM 27.5 °F 22.2 °F 26.6 °F 96% 29.53 in 10.0 mi SE 4.6 mph - N/A   Clear
8:15 AM 29.1 °F 23.0 °F 27.3 °F 93% 29.52 in 10.0 mi SSE 5.8 mph - N/A   Clear
8:35 AM 30.2 °F 25.4 °F 27.9 °F 91% 29.53 in 10.0 mi SSE 4.6 mph - N/A   Clear
8:55 AM 30.9 °F 26.2 °F 28.0 °F 89% 29.53 in 10.0 mi SE 4.6 mph - N/A   Clear
9:15 AM 32.0 °F 28.7 °F 27.7 °F 84% 29.52 in 10.0 mi South 3.5 mph - N/A   Clear
9:35 AM 35.6 °F 30.7 °F 26.1 °F 68% 29.51 in 10.0 mi South 5.8 mph - N/A   Clear
9:55 AM 36.9 °F 30.7 °F 25.7 °F 64% 29.51 in 10.0 mi South 8.1 mph - N/A   Clear
10:15 AM 37.9 °F 30.9 °F 25.7 °F 61% 29.49 in 10.0 mi South 10.4 mph 16.1 mph N/A   Clear
10:35 AM 39.2 °F 32.0 °F 25.5 °F 58% 29.47 in 10.0 mi South 11.5 mph 18.4 mph N/A   Clear
10:55 AM 41.2 °F 34.5 °F 25.5 °F 54% 29.47 in 10.0 mi SSW 11.5 mph 20.7 mph N/A   Clear
11:15 AM 42.8 °F 37.0 °F 25.3 °F 50% 29.46 in 10.0 mi SSW 10.4 mph 21.9 mph N/A   Clear
11:35 AM 43.7 °F 38.1 °F 25.3 °F 48% 29.46 in 10.0 mi SW 10.4 mph 19.6 mph N/A   Clear
11:55 AM 42.8 °F 37.0 °F 25.5 °F 51% 29.45 in 10.0 mi SW 10.4 mph 19.6 mph N/A   Clear
12:15 PM 42.8 °F 36.2 °F 25.5 °F 51% 29.44 in 10.0 mi SW 12.7 mph 20.7 mph N/A   Clear
12:35 PM 42.4 °F 35.3 °F 25.7 °F 52% 29.43 in 10.0 mi SSW 13.8 mph 20.7 mph N/A   Clear
12:55 PM 42.8 °F 35.8 °F 26.1 °F 52% 29.42 in 10.0 mi SSW 13.8 mph 20.7 mph N/A   Clear
1:15 PM 44.1 °F 39.0 °F 26.4 °F 50% 29.41 in 10.0 mi SSW 9.2 mph 18.4 mph N/A   Clear
1:35 PM 43.9 °F 38.3 °F 26.4 °F 50% 29.41 in 10.0 mi SSW 10.4 mph 16.1 mph N/A   Clear
1:55 PM 44.1 °F 39.5 °F 26.4 °F 50% 29.42 in 10.0 mi SSW 8.1 mph - N/A   Clear
2:15 PM 43.9 °F 38.3 °F 26.6 °F 51% 29.42 in 10.0 mi SW 10.4 mph 17.3 mph N/A   Clear
2:35 PM 43.5 °F 37.1 °F 26.8 °F 52% 29.44 in 10.0 mi WSW 12.7 mph 17.3 mph N/A   Clear
2:55 PM 42.8 °F 37.5 °F 27.1 °F 54% 29.45 in 10.0 mi SW 9.2 mph - N/A   Clear
3:15 PM 42.6 °F 39.0 °F 27.3 °F 55% 29.44 in 10.0 mi SW 5.8 mph - N/A   Clear
3:35 PM 41.9 °F 39.0 °F 27.5 °F 57% 29.44 in 10.0 mi SW 4.6 mph - N/A   Clear
3:55 PM 41.9 °F 37.5 °F 27.5 °F 57% 29.44 in 10.0 mi SW 6.9 mph - N/A   Clear
4:15 PM 41.2 °F 37.3 °F 27.5 °F 58% 29.45 in 10.0 mi SW 5.8 mph - N/A   Clear
4:35 PM 40.8 °F 36.9 °F 27.7 °F 60% 29.45 in 10.0 mi SW 5.8 mph - N/A   Clear
4:55 PM 40.1 °F 38.0 °F 28.0 °F 62% 29.46 in 10.0 mi SSW 3.5 mph - N/A   Clear
5:15 PM 39.6 °F 36.3 °F 28.0 °F 63% 29.47 in 10.0 mi SW 4.6 mph - N/A   Clear
5:35 PM 38.8 °F 36.5 °F 28.2 °F 66% 29.47 in 10.0 mi SSW 3.5 mph - N/A   Clear
5:55 PM 38.1 °F 34.6 °F 28.2 °F 68% 29.48 in 10.0 mi South 4.6 mph - N/A   Clear
6:15 PM 38.3 °F 35.9 °F 28.4 °F 68% 29.48 in 10.0 mi SSW 3.5 mph - N/A   Mostly Cloudy
6:35 PM 38.3 °F 34.8 °F 28.4 °F 68% 29.48 in 10.0 mi SSW 4.6 mph - N/A   Mostly Cloudy
6:55 PM 38.3 °F 34.8 °F 28.6 °F 68% 29.47 in 10.0 mi SSW 4.6 mph - N/A   Clear
7:15 PM 38.1 °F 35.7 °F 28.8 °F 69% 29.48 in 10.0 mi SW 3.5 mph - N/A   Clear
7:35 PM 37.6 °F 35.1 °F 28.9 °F 71% 29.48 in 10.0 mi SW 3.5 mph - N/A   Clear
7:55 PM 38.3 °F 34.8 °F 29.3 °F 70% 29.48 in 10.0 mi SW 4.6 mph - N/A   Clear
8:15 PM 38.3 °F 34.8 °F 29.3 °F 70% 29.49 in 10.0 mi SW 4.6 mph - N/A   Scattered Clouds
8:35 PM 38.5 °F 34.1 °F 29.7 °F 71% 29.50 in 10.0 mi WSW 5.8 mph - N/A   Mostly Cloudy
8:55 PM 38.3 °F 33.9 °F 29.7 °F 71% 29.50 in 10.0 mi SW 5.8 mph - N/A   Overcast
9:15 PM 38.3 °F 35.9 °F 29.7 °F 71% 29.50 in 10.0 mi WSW 3.5 mph - N/A   Overcast
9:35 PM 37.9 °F 35.5 °F 29.8 °F 73% 29.50 in 10.0 mi SW 3.5 mph - N/A   Overcast
9:55 PM 37.9 °F - 29.8 °F 73% 29.50 in 10.0 mi Calm Calm - N/A   Overcast
10:15 PM 37.4 °F 33.8 °F 30.0 °F 75% 29.49 in 10.0 mi SSW 4.6 mph - N/A   Overcast
10:35 PM 37.0 °F 33.3 °F 30.0 °F 76% 29.50 in 10.0 mi SSW 4.6 mph - N/A   Overcast
10:55 PM 37.4 °F 33.8 °F 30.0 °F 75% 29.51 in 10.0 mi SSW 4.6 mph - N/A   Overcast
11:15 PM 37.2 °F - 30.2 °F 76% 29.51 in 10.0 mi Calm Calm - N/A   Overcast
11:35 PM 36.9 °F - 30.2 °F 77% 29.50 in 10.0 mi Calm Calm - N/A   Overcast
11:55 PM 36.7 °F - 30.2 °F 77% 29.49 in 10.0 mi Calm Calm - N/A   Overcast